FREGAT R/B, 49504

Orbit data source: Space-Track

FREGAT R/B, 49504 is space debris in HEO originally from a launch on Thu, 25 Nov 2021 UTC launched from the Plesetsk Missile And Space Complex (PKMTR). Debris objects in space refer to the collection of defunct objects orbiting the Earth. Examples of debris include non-operational satellites, rocket bodies, and fragments generated from explosions, collisions, or faulty payload assembly.

Loading next visibility...
Identifier
49504, 2021-113B
Orbit
HEO
Country
Flag of CISCIS
Related business
Manufacturer
Lavochkin
Mission
Spacecraft
Bus & Motor
FREGAT, Unknown motor
Mass
1,000 kg wet, 1,000 kg dry
Launch date (UTC)
2021-11-25 (5 years ago)
Launch vehicle
Unknown
Launch site
Plesetsk Missile And Space Complex (PKMTR)
Object type
Payload
Rocket body
Debris
Shape & HBR
Cyl, 1.7 m
Radar Cross Section
8.354 m², Large (>1 m²)

Expand to show TLE details & history
Last TLE update: 6 days ago

TLE from 6 days ago
0 FREGAT R/B
1 49504U 21113B   26167.24504110  .00001012  00000-0  00000-0 0  9993
2 49504  63.3495 207.3046 6490839 266.3165  23.0009  2.01625601 33546
Epoch: 2026-06-16T05:52Z
TLE epoch observation values (Epoch: 2026-06-16T05:52:51.551Z)
Latitude
-0.00014°
Longitude
-145.40982°
Altitude
9,630.324 km
Speed
5.894 km/s
True Right ascension
13h 49m 17s
True Declination
0° 00' 01"
Sunlit
Object was in daylight at epoch
Visualization orbit readout
Latitude
Unknown
Longitude
Unknown
Altitude
Unknown
Speed
Unknown
Apparent Right ascension
Unknown
Apparent Declination
Unknown
Sunlit
N/A
Visualization observer readout
Local Sidereal Time
23:07:36
Azimuth
Unknown
Elevation
Unknown
Doppler factor
Unknown
Orbital elements
Apogee altitude
37,266.959 km
Perigee altitude
2,909.302 km
Semi-major axis
26,466.267 km
Eccentricity
0.64908
Inclination
63.3495°
RAAN
207.3046°
Arg. of periapsis
266.3165°
True anomaly
93.83388°
Mean anomaly
23.0009°
Eccentric anomaly
52.50914°
Mean motion
0.50409 °/min
Orbital period
714.16 mins
BSTAR
0
Loading maneuver chart data...
Computing Atmospheric mass density...
Loading historical data...
Loading historical data...
Loading historical data...
Loading historical data...
Loading historical data...
Loading historical data...
Loading historical data...
Other satellites on launch #113 in the year 2021 (2021-11-25 UTC)

Documentation

Showing up to 5 results
|